PROFILE

 METAR AND TAF INFORMATION
ADDS - METARS form results

(1015 UTC 18 May 2022)
http://aviationweather.gov/metar/data/
 
BIKF 181000Z VRB04KT 9999 FEW046 BKN170 13/05 Q0999
BIKF 180930Z 06005KT 9999 FEW046 BKN170 12/05 Q0999
TAF BIKF 180756Z 1809/1909 04008KT 9999 SCT020 BKN030 TX13/1813Z TN07/1906Z BECMG 1809/1811 13007KT TEMPO 1814/1909 4000 SHRA BKN008 OVC015 BECMG 1907/1909 11010KT 

 AIRPORT MAP

 RUNWAY INFORMATION
Runway 02 Runway length 10019 ft Runway width 197 ft
Runway elevation 137 ft Runway displaced threshold 19 ft Runway heading 360
Runway 20 Runway length 10019 ft Runway width 197 ft
Runway elevation 163 ft Runway displaced threshold 19 ft Runway heading 180
Runway 11 Runway length 10056 ft Runway width 197 ft
Runway elevation 111 ft Runway displaced threshold 43 ft Runway heading 90
Runway 29 Runway length 10056 ft Runway width 197 ft
Runway elevation 171 ft Runway displaced threshold 43 ft Runway heading 270

 AIRPORT FREQUENCIES
Type A/G Name AIR GND Frequency 131.9 MHZ
Type APP Name APP Frequency 119.3 MHZ
Type ATIS Name ATIS Frequency 128.3 MHZ
Type DEP Name DEP Frequency 119.3 MHZ
Type GND Name GND Frequency 121.9 MHZ
Type OPS Name BASE OPS Frequency 129 MHZ
Type PMSV Name PMSV METR Frequency 125 MHZ
Type TWR Name TWR Frequency 118.3 MHZ

 AIRPORT NEAR NAVIGATION AIDS
Type VORTAC Name Keflavik Frequency 112000 KHZ
Type NDB Name Keflavik Frequency 392 KHZ
Type NDB Name Oscar Kilo Frequency 364 KHZ